Find Starlink 1524

NORAD ID: 46047 Int'l Des: 2020-055 Owner: SPXS Country: US Constellation: starlink operational
LEOCIRCULAR

当前视图

正在加载3D地球...

About Starlink 1524

Starlink 1524 (NORAD 46047) is a starlink constellation satellite (v1.0) launched Aug 7, 2020 by SPXS of US. It operates in LEO, CIRCULAR orbit with a mass of 260.00 kg.

关于 Starlink 1524

正在加载描述...

即将过境

Passes for default location (London). Set your location on the main map for personalized predictions.

高度历史

Loading altitude history...

两行轨道根数

1 46047U 20055W 26170.81996343 .00000832 00000-0 38573-4 0 9995
2 46047 53.1600 358.8937 0001043 104.5157 255.5960 15.31701061324716
Epoch: Jun 19, 2026 • Age: 38 hours

当前状态

高度 475.6 km
速度 7.63 km/s
星下点 49.16°N, 56.3°E
发射日期 Aug 7, 2020
运行时间 5.8 years
类型 internet

技术详情

分类 Payload
质量 260.00 kg
干质量 248.00 kg
总质量 260.00 kg
长度 0.20 m
直径 2.80 m
跨度 9.00 m
形状 Box + pan
制造商 SPXS
平台类型 Starlink
阶段状态 In Orbit
所有者/国家 SPXS/US

Most Searched